| time (UTC) | temp F | wind direction | speed MPH | gust MPH | rain 1hr in | rain 24hr in | rain mn in | humidity % | barometer mb |
| 20260506212124 | 60 | 236 | 3.0 | 5.0 | 0.00 | 0.04 | 0.04 | 99 | 1005.1 |
| 20260506211122 | 60 | 237 | 1.0 | 5.0 | 0.00 | 0.04 | 0.04 | 99 | 1005.0 |
| 20260506210121 | 60 | 258 | 1.0 | 3.0 | 0.00 | 0.04 | 0.04 | 99 | 1005.0 |
| 20260506205121 | 60 | 222 | 2.0 | 3.0 | 0.00 | 0.04 | 0.04 | 99 | 1005.0 |
| 20260506204121 | 59 | 253 | 2.0 | 5.0 | 0.00 | 0.04 | 0.04 | 99 | 1005.2 |
| 20260506203121 | 58 | 255 | 1.0 | 3.0 | 0.01 | 0.04 | 0.04 | 99 | 1005.2 |
| 20260506202145 | 58 | 203 | 2.0 | 4.0 | 0.02 | 0.04 | 0.04 | 99 | 1005.4 |
| 20260506201124 | 58 | 223 | 2.0 | 3.0 | 0.02 | 0.04 | 0.04 | 99 | 1005.7 |
| 20260506200121 | 58 | 224 | 2.0 | 4.0 | 0.02 | 0.04 | 0.04 | 99 | 1005.7 |
| 20260506195121 | 58 | 262 | 2.0 | 6.0 | 0.02 | 0.04 | 0.04 | 99 | 1005.7 |
| 20260506194123 | 58 | 259 | 3.0 | 5.0 | 0.02 | 0.04 | 0.04 | 99 | 1005.8 |
| 20260506193121 | 58 | 249 | 3.0 | 6.0 | 0.01 | 0.03 | 0.03 | 99 | 1006.1 |
| 20260506192121 | 58 | 247 | 5.0 | 12.0 | 0.00 | 0.02 | 0.02 | 99 | 1006.0 |
| 20260506191121 | 59 | 256 | 5.0 | 11.0 | 0.00 | 0.02 | 0.02 | 99 | 1005.9 |
| 20260506190146 | 59 | 253 | 5.0 | 10.0 | 0.00 | 0.02 | 0.02 | 99 | 1005.9 |
| 20260506185145 | 60 | 212 | 4.0 | 8.0 | 0.00 | 0.02 | 0.02 | 99 | 1005.7 |
| 20260506184124 | 59 | 168 | 3.0 | 4.0 | 0.00 | 0.02 | 0.02 | 99 | 1005.9 |
| 20260506183123 | 59 | 225 | 3.0 | 6.0 | 0.00 | 0.02 | 0.02 | 99 | 1006.2 |
| 20260506182127 | 59 | 220 | 3.0 | 5.0 | 0.01 | 0.02 | 0.02 | 99 | 1006.5 |
| 20260506181122 | 59 | 249 | 4.0 | 6.0 | 0.01 | 0.02 | 0.02 | 99 | 1006.4 |
| 20260506180146 | 59 | 215 | 3.0 | 5.0 | 0.01 | 0.02 | 0.02 | 99 | 1006.4 |
| 20260506175122 | 59 | 266 | 3.0 | 5.0 | 0.02 | 0.02 | 0.02 | 99 | 1006.4 |
| 20260506174123 | 59 | 252 | 3.0 | 6.0 | 0.02 | 0.02 | 0.02 | 99 | 1006.7 |
| 20260506173122 | 59 | 221 | 3.0 | 5.0 | 0.02 | 0.02 | 0.02 | 99 | 1006.7 |
| 20260506172122 | 59 | 235 | 4.0 | 8.0 | 0.01 | 0.01 | 0.01 | 99 | 1007.2 |
| 20260506171122 | 60 | 246 | 2.0 | 5.0 | 0.01 | 0.01 | 0.01 | 99 | 1007.4 |
| 20260506170121 | 59 | 231 | 3.0 | 9.0 | 0.01 | 0.01 | 0.01 | 99 | 1007.5 |
| 20260506165121 | 60 | 238 | 4.0 | 7.0 | 0.00 | 0.00 | 0.00 | 99 | 1007.5 |
| 20260506164143 | 60 | 205 | 3.0 | 7.0 | 0.00 | 0.00 | 0.00 | 97 | 1007.9 |
| 20260506163121 | 62 | 252 | 3.0 | 9.0 | 0.00 | 0.00 | 0.00 | 91 | 1008.0 |
| 20260506162121 | 62 | 241 | 4.0 | 8.0 | 0.00 | 0.00 | 0.00 | 89 | 1008.0 |
| 20260506161121 | 63 | 258 | 5.0 | 8.0 | 0.00 | 0.00 | 0.00 | 89 | 1008.1 |
| 20260506160121 | 64 | 241 | 4.0 | 7.0 | 0.00 | 0.00 | 0.00 | 87 | 1007.8 |
| 20260506155121 | 63 | 251 | 5.0 | 8.0 | 0.00 | 0.00 | 0.00 | 90 | 1007.8 |
| 20260506154121 | 62 | 235 | 5.0 | 10.0 | 0.00 | 0.00 | 0.00 | 90 | 1008.0 |
| 20260506153123 | 63 | 235 | 5.0 | 10.0 | 0.00 | 0.00 | 0.00 | 88 | 1008.2 |
| 20260506152122 | 65 | 267 | 4.0 | 9.0 | 0.00 | 0.00 | 0.00 | 87 | 1008.2 |
| 20260506151142 | 65 | 268 | 5.0 | 9.0 | 0.00 | 0.00 | 0.00 | 86 | 1008.4 |
| 20260506150121 | 66 | 220 | 5.0 | 9.0 | 0.00 | 0.00 | 0.00 | 84 | 1008.1 |
| 20260506145122 | 66 | 225 | 3.0 | 6.0 | 0.00 | 0.00 | 0.00 | 85 | 1008.1 |
| 20260506144122 | 64 | 193 | 3.0 | 7.0 | 0.00 | 0.00 | 0.00 | 88 | 1008.1 |
| 20260506143122 | 64 | 184 | 3.0 | 5.0 | 0.00 | 0.00 | 0.00 | 89 | 1007.9 |
| 20260506142122 | 63 | 269 | 4.0 | 6.0 | 0.00 | 0.00 | 0.00 | 88 | 1008.1 |
| 20260506141123 | 64 | 227 | 4.0 | 8.0 | 0.00 | 0.00 | 0.00 | 88 | 1008.2 |
| 20260506140122 | 64 | 222 | 4.0 | 6.0 | 0.00 | 0.00 | 0.00 | 87 | 1008.2 |
| 20260506135123 | 65 | 231 | 3.0 | 6.0 | 0.00 | 0.00 | 0.00 | 86 | 1008.2 |
| 20260506134144 | 65 | 235 | 5.0 | 7.0 | 0.00 | 0.00 | 0.00 | 86 | 1008.4 |
| 20260506133143 | 65 | 215 | 5.0 | 8.0 | 0.00 | 0.00 | 0.00 | 86 | 1008.4 |
| 20260506132122 | 65 | 210 | 4.0 | 8.0 | 0.00 | 0.00 | 0.00 | 86 | 1008.2 |
| 20260506131121 | 65 | 241 | 3.0 | 6.0 | 0.00 | 0.00 | 0.00 | 86 | 1008.2 |
| 20260506130121 | 64 | 225 | 3.0 | 6.0 | 0.00 | 0.00 | 0.00 | 87 | 1008.2 |
| 20260506125121 | 63 | 239 | 3.0 | 6.0 | 0.00 | 0.00 | 0.00 | 89 | 1008.2 |
| 20260506124145 | 62 | 232 | 4.0 | 8.0 | 0.00 | 0.00 | 0.00 | 91 | 1008.2 |
| 20260506123123 | 62 | 236 | 3.0 | 6.0 | 0.00 | 0.00 | 0.00 | 91 | 1008.2 |
| 20260506122122 | 62 | 221 | 4.0 | 8.0 | 0.00 | 0.00 | 0.00 | 90 | 1008.6 |
| 20260506121121 | 63 | 259 | 4.0 | 7.0 | 0.00 | 0.00 | 0.00 | 90 | 1008.6 |
| 20260506120121 | 61 | 241 | 4.0 | 6.0 | 0.00 | 0.00 | 0.00 | 93 | 1008.7 |
| 20260506115121 | 61 | 230 | 3.0 | 5.0 | 0.00 | 0.00 | 0.00 | 95 | 1008.7 |
| 20260506114121 | 61 | 259 | 3.0 | 5.0 | 0.00 | 0.00 | 0.00 | 95 | 1008.7 |
| 20260506113122 | 60 | 274 | 4.0 | 6.0 | 0.00 | 0.00 | 0.00 | 95 | 1008.6 |
| 20260506112123 | 60 | 261 | 3.0 | 5.0 | 0.00 | 0.00 | 0.00 | 96 | 1008.5 |
| 20260506111123 | 59 | 210 | 3.0 | 10.0 | 0.00 | 0.00 | 0.00 | 98 | 1008.6 |
| 20260506110122 | 58 | 206 | 3.0 | 7.0 | 0.00 | 0.00 | 0.00 | 99 | 1008.6 |
| 20260506105123 | 58 | 209 | 3.0 | 7.0 | 0.00 | 0.00 | 0.00 | 99 | 1008.6 |
| 20260506104122 | 56 | 229 | 3.0 | 6.0 | 0.00 | 0.00 | 0.00 | 99 | 1008.5 |
| 20260506103122 | 56 | 227 | 3.0 | 5.0 | 0.00 | 0.00 | 0.00 | 99 | 1008.5 |
| 20260506102122 | 55 | 207 | 3.0 | 4.0 | 0.00 | 0.00 | 0.00 | 99 | 1008.5 |
| 20260506101122 | 55 | 276 | 2.0 | 5.0 | 0.00 | 0.00 | 0.00 | 99 | 1008.4 |
| 20260506100124 | 55 | 239 | 3.0 | 6.0 | 0.00 | 0.00 | 0.00 | 99 | 1008.4 |
| 20260506095123 | 55 | 217 | 3.0 | 5.0 | 0.00 | 0.00 | 0.00 | 99 | 1008.4 |
| 20260506094123 | 55 | 219 | 2.0 | 5.0 | 0.00 | 0.00 | 0.00 | 99 | 1008.4 |
| 20260506093122 | 55 | 226 | 3.0 | 6.0 | 0.00 | 0.00 | 0.00 | 99 | 1008.4 |
| 20260506092121 | 55 | 198 | 2.0 | 4.0 | 0.00 | 0.00 | 0.00 | 99 | 1008.4 |
| 20260506091121 | 55 | 244 | 2.0 | 4.0 | 0.00 | 0.00 | 0.00 | 99 | 1008.6 |
| 20260506090121 | 55 | 216 | 2.0 | 4.0 | 0.00 | 0.00 | 0.00 | 99 | 1008.6 |
| 20260506085122 | 55 | 166 | 2.0 | 5.0 | 0.00 | 0.00 | 0.00 | 99 | 1008.7 |
| 20260506084121 | 55 | 177 | 2.0 | 5.0 | 0.00 | 0.00 | 0.00 | 99 | 1008.7 |
| 20260506083122 | 55 | 210 | 2.0 | 4.0 | 0.00 | 0.00 | 0.00 | 99 | 1008.7 |
| 20260506082121 | 55 | 195 | 2.0 | 4.0 | 0.00 | 0.00 | 0.00 | 99 | 1008.7 |
| 20260506081121 | 55 | 161 | 2.0 | 4.0 | 0.00 | 0.00 | 0.00 | 99 | 1008.8 |
| 20260506080152 | 55 | 191 | 2.0 | 4.0 | 0.00 | 0.00 | 0.00 | 99 | 1008.9 |
| 20260506080142 | 55 | 193 | 2.0 | 4.0 | 0.00 | 0.00 | 0.00 | 99 | 1008.9 |
| 20260506073143 | 55 | 210 | 2.0 | 5.0 | 0.00 | 0.00 | 0.00 | 99 | 1008.9 |
| 20260506072142 | 55 | 159 | 1.0 | 3.0 | 0.00 | 0.00 | 0.00 | 99 | 1009.1 |
| 20260506071123 | 56 | 182 | 1.0 | 3.0 | 0.00 | 0.00 | 0.00 | 99 | 1009.1 |
| 20260506070121 | 56 | 181 | 2.0 | 4.0 | 0.00 | 0.00 | 0.00 | 99 | 1009.1 |
| 20260506062144 | 57 | 298 | 3.0 | 5.0 | 0.00 | 0.00 | 0.00 | 99 | 1009.0 |
| 20260506061122 | 57 | 227 | 3.0 | 5.0 | 0.00 | 0.00 | 0.00 | 99 | 1009.0 |
| 20260506060122 | 57 | 213 | 2.0 | 4.0 | 0.00 | 0.00 | 0.00 | 99 | 1009.0 |
| 20260506051121 | 57 | 236 | 3.0 | 6.0 | 0.00 | 0.00 | 0.00 | 98 | 1009.2 |
| 20260506050122 | 58 | 157 | 3.0 | 6.0 | 0.00 | 0.00 | 0.00 | 97 | 1009.2 |
| 20260506045121 | 58 | 227 | 2.0 | 5.0 | 0.00 | 0.00 | 0.00 | 97 | 1009.4 |
| 20260506044121 | 58 | 218 | 3.0 | 5.0 | 0.00 | 0.00 | 0.00 | 96 | 1009.4 |
| 20260506043122 | 58 | 227 | 4.0 | 9.0 | 0.00 | 0.00 | 0.00 | 96 | 1009.5 |
| 20260506042122 | 58 | 245 | 5.0 | 10.0 | 0.00 | 0.00 | 0.00 | 95 | 1009.2 |
| 20260506041121 | 59 | 226 | 4.0 | 9.0 | 0.00 | 0.00 | 0.00 | 95 | 1009.2 |
| 20260506040122 | 59 | 252 | 4.0 | 6.0 | 0.00 | 0.00 | 0.00 | 94 | 1009.2 |
| 20260506035121 | 59 | 220 | 4.0 | 7.0 | 0.00 | 0.00 | 0.00 | 94 | 1009.2 |
| 20260506034121 | 59 | 230 | 4.0 | 8.0 | 0.00 | 0.00 | 0.00 | 93 | 1009.2 |
| 20260506033121 | 60 | 260 | 4.0 | 8.0 | 0.00 | 0.00 | 0.00 | 93 | 1009.1 |
| 20260506032124 | 60 | 278 | 4.0 | 7.0 | 0.00 | 0.00 | 0.00 | 92 | 1009.1 |
| 20260506031143 | 60 | 206 | 4.0 | 8.0 | 0.00 | 0.00 | 0.00 | 91 | 1009.2 |
| 20260506030121 | 61 | 268 | 4.0 | 8.0 | 0.00 | 0.00 | 0.00 | 90 | 1009.2 |
| 20260506025121 | 61 | 196 | 4.0 | 9.0 | 0.00 | 0.00 | 0.00 | 89 | 1009.2 |
| 20260506024122 | 61 | 226 | 4.0 | 8.0 | 0.00 | 0.00 | 0.00 | 88 | 1009.2 |
| 20260506023143 | 61 | 233 | 4.0 | 7.0 | 0.00 | 0.00 | 0.00 | 87 | 1009.2 |
| 20260506022122 | 61 | 239 | 3.0 | 7.0 | 0.00 | 0.00 | 0.00 | 86 | 1009.1 |
| 20260506021143 | 62 | 215 | 4.0 | 6.0 | 0.00 | 0.00 | 0.00 | 85 | 1009.2 |
| 20260506020123 | 62 | 216 | 4.0 | 7.0 | 0.00 | 0.00 | 0.00 | 84 | 1009.2 |
| 20260506015123 | 63 | 220 | 5.0 | 11.0 | 0.00 | 0.00 | 0.00 | 83 | 1009.1 |
| 20260506014123 | 63 | 251 | 4.0 | 9.0 | 0.00 | 0.00 | 0.00 | 81 | 1008.9 |
| 20260506013123 | 64 | 214 | 4.0 | 10.0 | 0.00 | 0.00 | 0.00 | 80 | 1008.9 |
| 20260506012122 | 64 | 222 | 4.0 | 6.0 | 0.00 | 0.00 | 0.00 | 80 | 1008.7 |
| 20260506011122 | 64 | 207 | 4.0 | 7.0 | 0.00 | 0.00 | 0.00 | 80 | 1008.6 |
| 20260506010121 | 64 | 271 | 4.0 | 8.0 | 0.00 | 0.00 | 0.00 | 80 | 1008.6 |
| 20260506005122 | 64 | 224 | 5.0 | 9.0 | 0.00 | 0.00 | 0.00 | 79 | 1008.5 |
| 20260506004124 | 65 | 236 | 5.0 | 9.0 | 0.00 | 0.00 | 0.00 | 78 | 1008.2 |
| 20260506003124 | 65 | 236 | 4.0 | 7.0 | 0.00 | 0.00 | 0.00 | 77 | 1008.2 |
| 20260506002121 | 66 | 213 | 4.0 | 10.0 | 0.00 | 0.00 | 0.00 | 77 | 1008.1 |
| 20260506001121 | 66 | 231 | 6.0 | 9.0 | 0.00 | 0.00 | 0.00 | 77 | 1007.9 |
| 20260506000122 | 66 | 297 | 5.0 | 12.0 | 0.00 | 0.00 | 0.00 | 77 | 1007.9 |
| 20260505235143 | 66 | 268 | 6.0 | 11.0 | 0.00 | 0.00 | 0.00 | 77 | 1007.7 |
| 20260505234209 | 66 | 238 | 6.0 | 15.0 | 0.00 | 0.00 | 0.00 | 76 | 1007.5 |
| 20260505234142 | 66 | 236 | 6.0 | 15.0 | 0.00 | 0.00 | 0.00 | 76 | 1007.5 |
| 20260505233125 | 66 | 250 | 5.0 | 8.0 | 0.00 | 0.00 | 0.00 | 76 | 1007.2 |
| 20260505232125 | 66 | 244 | 5.0 | 10.0 | 0.00 | 0.00 | 0.00 | 76 | 1007.2 |
| 20260505231125 | 66 | 240 | 5.0 | 10.0 | 0.00 | 0.00 | 0.00 | 76 | 1007.2 |
| 20260505230121 | 66 | 225 | 6.0 | 17.0 | 0.00 | 0.00 | 0.00 | 76 | 1007.0 |
| 20260505225142 | 66 | 256 | 5.0 | 10.0 | 0.00 | 0.00 | 0.00 | 75 | 1007.0 |
| 20260505224124 | 67 | 264 | 5.0 | 10.0 | 0.00 | 0.00 | 0.00 | 74 | 1007.1 |
| 20260505223143 | 67 | 230 | 6.0 | 11.0 | 0.00 | 0.00 | 0.00 | 74 | 1007.0 |
| 20260505222144 | 68 | 233 | 6.0 | 8.0 | 0.00 | 0.00 | 0.00 | 73 | 1006.8 |
| 20260505221125 | 68 | 252 | 7.0 | 11.0 | 0.00 | 0.00 | 0.00 | 73 | 1006.9 |
| 20260505220126 | 69 | 237 | 7.0 | 11.0 | 0.00 | 0.00 | 0.00 | 71 | 1006.8 |
| 20260505215122 | 69 | 241 | 5.0 | 9.0 | 0.00 | 0.00 | 0.00 | 70 | 1006.8 |
| 20260505214122 | 70 | 267 | 6.0 | 11.0 | 0.00 | 0.00 | 0.00 | 71 | 1006.8 |
| 20260505213123 | 70 | 233 | 7.0 | 12.0 | 0.00 | 0.00 | 0.00 | 70 | 1006.8 |